Погода в Смолевичах

Беларусь     54°01′47″N   28°05′23″E
темп.,
°C
ветер,
м/с
пор.,
м/с
влажн.,
%
обл.,
%
осадки,
мм/ч
давл.,
гПа
погр.,
м
26 июля, пн
пн2600:00+21ююз115497 0.0 101911
03:00+17ю11695 0.0 102011
06:00+18ю227190 0.0 102026
09:00+22ююв346410 0.0 1020317
12:00+26юв4549100 0.0 10201301
15:00+28ююв4540100 0.0 10192796
18:00+21ююв2368100 0.2 102055
21:00+20вюв367118 0.2 101992
27 июля, вт
вт2700:00+17юв48795 0.0 1020124
03:00+16юв3681100 0.0 101997
06:00+17юв3773100 0.0 1019148
09:00+19юв41069100 0.0 1018293
12:00+26юв7950100 0.0 10171002
15:00+22в6106697 0.1 1016392
18:00+25юв6115694 0.1 1014978
21:00+21ююв51277100 0.4 1013385
28 июля, ср
ср2800:00+18ююв4998100 0.9 1012362
03:00+18ююв4997100 2.5 1011410
06:00+19з4897100 0.7 1011409
09:00+20з478797 0.7 1011508
12:00+26зсз79575 0.0 10111422
15:00+27зсз79476 0.0 10112006
18:00+27зсз69486 0.0 10112077
21:00+20з397828 0.4 1011182
29 июля, чт
чт2900:00+18з348669 0.0 101256
03:00+17з3686100 0.0 101283
06:00+17зсз3485100 0.0 101269
09:00+22з346410 0.0 1012429
12:00+26зсз454683 0.0 10121532
15:00+24зсз55568 0.0 1012469
18:00+24сз466041 0.0 1011279
21:00+20сз227518 0.0 101119
30 июля, пт
пт3000:00+17зсз228422 0.0 101216
03:00+17зсз228949 0.0 101114
06:00+17зсз228263 0.0 101139
09:00+22ююз22640 0.0 1011402
12:00+26юз234336 0.0 10101793
15:00+28ююз443892 0.0 10092458
18:00+26з2354100 0.0 1008219
21:00+22ююз46645 0.0 100794